Location: Freemans Gardens
(41.6414°N, 83.6077°W)
Time: 02:52:04
(UTC+00:00)

CZ-2D R/B - Pass Details

Date: 29 October 2020
Orbit: 521 x 537 km, 97.4° (Epoch: 26 November)

Event Time Altitude Azimuth Distance (km) Brightness Sun altitude
Rises 23:40:29 0° 157° (SSE) 2,648 6.6 -13.3°
Reaches altitude 10° 23:42:36 10° 154° (SSE) 1,761 5.7 -13.7°
Maximum altitude 23:46:20 58° 75° (ENE) 619 3.2 -14.4°
Drops below altitude 10° 23:50:04 10° 356° (N) 1,769 5.9 -15.1°
Sets 23:52:12 0° 353° (N) 2,661 6.9 -15.5°
